Belize, Belize

6:29 PM CST on April 25, 2018 (GMT -0600)
Philip S W Goldson International

Weather History for MZBZ - November, 2014

Change the Weather History Date:

Tuesday, November 11, 2014

  Actual Average Record
Temperature  
Mean Temperature 74 °F -  
Max Temperature 83 °F 84 °F 87 °F (2000)
Min Temperature 66 °F 70 °F 66 °F (1996)
Cooling Degree Days 10    
Growing Degree Days 24 (Base 50)    
Moisture  
Dew Point 71 °F    
Average Humidity 82    
Maximum Humidity 100    
Minimum Humidity 62    
Precipitation  
Precipitation 0.00 in 0.24 in - ()
Sea Level Pressure  
Sea Level Pressure 29.92 in    
Wind  
Wind Speed 2 mph ()    
Max Wind Speed 7 mph    
Max Gust Speed -    
Visibility 8.3 miles    
Events      
Averages and records for this station are not official NWS values.
T = Trace of Precipitation, MM = Missing Value Source: Averaged Metar Reports

Daily Weather History Graph

Daily Weather History Graph

Search for Another Location

Airport or City:

Astronomy

Nov. 11, 2014 Rise Set
Actual Time 5:56 AM CST 5:17 PM CST
Civil Twilight 5:33 AM CST 5:40 PM CST
Nautical Twilight 5:07 AM CST 6:06 PM CST
Astronomical Twilight 4:41 AM CST 6:32 PM CST
Moon 9:40 PM CST (11/11) 10:01 AM CST (11/11)
Length of Visible Light 12h 07m
Length of Day
11h 21m
Waning Gibbous, 76% of the Moon is Illuminated
Nov 11
Waning Gibbous
Nov 14
Last Quarter
Nov 22
New
Nov 29
First Quarter
Dec 6
Full

Hourly Weather History & Observations

Time (CST) Temp. Heat Index Dew Point Humidity Pressure Visibility Wind Dir Wind Speed Gust Speed Precip Events Conditions
12:00 AM 69 °F - 68 °F 96% 29.96 in 12 mi Calm Calm - -   Scattered Clouds
3:00 AM 68 °F - 67 °F 97% 29.92 in 12 mi Calm Calm - -   Scattered Clouds
5:00 AM 68.0 °F - 66.2 °F 94% 29.92 in 6.2 mi Calm Calm - N/A   Partly Cloudy
6:00 AM 67 °F - 66 °F 95% 29.94 in 12 mi Calm Calm - -   Scattered Clouds
6:00 AM 66.2 °F - 66.2 °F 100% 29.93 in 6.2 mi Calm Calm - N/A   Partly Cloudy
7:00 AM 68.0 °F - 68.0 °F 100% 29.95 in 6.2 mi Calm Calm - N/A   Partly Cloudy
8:00 AM 73.4 °F - 69.8 °F 88% 29.96 in 6.2 mi Calm Calm - N/A   Partly Cloudy
9:00 AM 77 °F - 72 °F 79% 29.96 in 12 mi Calm Calm - -   Scattered Clouds
9:00 AM 77.0 °F - 71.6 °F 83% 29.96 in 6.2 mi Calm Calm - N/A   Partly Cloudy
10:00 AM 80.6 °F 84.6 °F 71.6 °F 74% 29.95 in 6.2 mi Calm Calm - N/A   Mostly Cloudy
11:00 AM 82.4 °F 88.2 °F 73.4 °F 74% 29.93 in 6.2 mi East 3.5 mph - N/A   Mostly Cloudy
12:00 PM 82 °F - 71 °F 62% 29.92 in 12 mi ENE 5.8 mph - -   Partly Cloudy
12:00 PM 82.4 °F 87.2 °F 71.6 °F 70% 29.91 in 6.2 mi ENE 5.8 mph - N/A   Scattered Clouds
1:00 PM 82.4 °F 87.2 °F 71.6 °F 70% 29.89 in 6.2 mi ENE 5.8 mph - N/A   Scattered Clouds
2:00 PM 82.4 °F 87.2 °F 71.6 °F 70% 29.87 in 6.2 mi ENE 6.9 mph - N/A   Scattered Clouds
3:00 PM 82 °F - 72 °F 63% 29.88 in 14 mi ENE 5.8 mph - -   Scattered Clouds
3:00 PM 82.4 °F 87.2 °F 71.6 °F 70% 29.87 in 6.2 mi ENE 5.8 mph - N/A   Partly Cloudy
4:00 PM 80.6 °F 84.6 °F 71.6 °F 74% 29.87 in 6.2 mi East 4.6 mph - N/A   Partly Cloudy
5:00 PM 80.6 °F 85.4 °F 73.4 °F 79% 29.88 in 6.2 mi ENE 5.8 mph - N/A   Partly Cloudy
6:00 PM 77 °F - 73 °F 83% 29.89 in 12 mi ESE 3.5 mph - -   Scattered Clouds
6:00 PM 77.0 °F - 73.4 °F 89% 29.89 in 6.2 mi ESE 3.5 mph - N/A   Partly Cloudy
7:00 PM 77.0 °F - 73.4 °F 89% 29.90 in 6.2 mi East 6.9 mph - N/A   Partly Cloudy
9:00 PM 78 °F - 73 °F 79% 29.94 in 12 mi ESE 3.5 mph - -   Scattered Clouds